| time (UTC) | temp C | wind direction | speed KPH | gust KPH | rain 1hr cm | rain 24hr cm | rain mn cm | humidity % | barometer mb |
| 20260505084706 | 24 | 82 | 0.0 | 0.0 | 0.00 | 0.00 | 0.00 | 84 | 1000.2 |
| 20260505084202 | 24 | 82 | 0.0 | 0.0 | 0.00 | 0.00 | 0.00 | 84 | 1000.2 |
| 20260505083705 | 24 | 82 | 0.0 | 0.0 | 0.00 | 0.00 | 0.00 | 84 | 1000.2 |
| 20260505083201 | 24 | 82 | 0.0 | 0.0 | 0.00 | 0.00 | 0.00 | 84 | 999.9 |
| 20260505082703 | 24 | 82 | 0.0 | 0.0 | 0.00 | 0.00 | 0.00 | 84 | 999.8 |
| 20260505082211 | 24 | 82 | 0.0 | 0.0 | 0.00 | 0.00 | 0.00 | 84 | 999.9 |
| 20260505081703 | 24 | 82 | 0.0 | 0.0 | 0.00 | 0.00 | 0.00 | 84 | 999.8 |
| 20260505081201 | 24 | 82 | 0.0 | 1.6 | 0.00 | 0.00 | 0.00 | 84 | 999.9 |
| 20260505080705 | 24 | 82 | 0.0 | 1.6 | 0.00 | 0.00 | 0.00 | 84 | 999.8 |
| 20260505080201 | 24 | 82 | 0.0 | 3.2 | 0.00 | 0.00 | 0.00 | 84 | 999.7 |
| 20260505075704 | 24 | 82 | 0.0 | 8.0 | 0.00 | 0.00 | 0.00 | 84 | 999.6 |
| 20260505075201 | 24 | 82 | 0.0 | 8.0 | 0.00 | 0.00 | 0.00 | 84 | 999.6 |
| 20260505074704 | 24 | 82 | 1.6 | 6.4 | 0.00 | 0.00 | 0.00 | 84 | 999.5 |
| 20260505074201 | 24 | 82 | 0.0 | 1.6 | 0.00 | 0.00 | 0.00 | 84 | 999.6 |
| 20260505073703 | 24 | 82 | 0.0 | 6.4 | 0.00 | 0.00 | 0.00 | 84 | 999.5 |
| 20260505073201 | 24 | 82 | 0.0 | 6.4 | 0.00 | 0.00 | 0.00 | 84 | 999.5 |
| 20260505072701 | 24 | 82 | 0.0 | 6.4 | 0.00 | 0.00 | 0.00 | 84 | 999.5 |
| 20260505072200 | 24 | 82 | 1.6 | 6.4 | 0.00 | 0.00 | 0.00 | 84 | 999.5 |
| 20260505071703 | 24 | 82 | 0.0 | 6.4 | 0.00 | 0.00 | 0.00 | 84 | 999.4 |
| 20260505071201 | 24 | 82 | 0.0 | 6.4 | 0.00 | 0.00 | 0.00 | 84 | 999.4 |
| 20260505070704 | 24 | 82 | 0.0 | 6.4 | 0.00 | 0.00 | 0.00 | 84 | 999.4 |
| 20260505070200 | 24 | 82 | 0.0 | 8.0 | 0.00 | 0.00 | 0.00 | 84 | 999.5 |
| 20260505065703 | 24 | 82 | 1.6 | 8.0 | 0.00 | 0.00 | 0.00 | 84 | 999.4 |
| 20260505065200 | 24 | 82 | 0.0 | 3.2 | 0.00 | 0.00 | 0.00 | 84 | 999.4 |
| 20260505064702 | 24 | 82 | 0.0 | 4.8 | 0.00 | 0.00 | 0.00 | 84 | 999.4 |
| 20260505064159 | 24 | 82 | 0.0 | 8.0 | 0.00 | 0.00 | 0.00 | 84 | 999.5 |
| 20260505063705 | 25 | 82 | 1.6 | 8.0 | 0.00 | 0.00 | 0.00 | 84 | 999.4 |
| 20260505063159 | 25 | 82 | 0.0 | 6.4 | 0.00 | 0.00 | 0.00 | 84 | 999.4 |
| 20260505062703 | 25 | 82 | 0.0 | 6.4 | 0.00 | 0.00 | 0.00 | 84 | 999.4 |
| 20260505062158 | 25 | 82 | 0.0 | 6.4 | 0.00 | 0.00 | 0.00 | 84 | 999.3 |
| 20260505061700 | 25 | 82 | 0.0 | 8.0 | 0.00 | 0.00 | 0.00 | 83 | 999.5 |
| 20260505060701 | 25 | 83 | 0.0 | 9.7 | 0.00 | 0.00 | 0.00 | 83 | 999.4 |
| 20260505060159 | 25 | 83 | 0.0 | 8.0 | 0.00 | 0.00 | 0.00 | 83 | 999.4 |
| 20260505054701 | 25 | 85 | 0.0 | 9.7 | 0.00 | 0.00 | 0.00 | 83 | 999.5 |
| 20260505054158 | 25 | 87 | 1.6 | 9.7 | 0.00 | 0.00 | 0.00 | 83 | 999.5 |
| 20260505053701 | 25 | 71 | 1.6 | 9.7 | 0.00 | 0.00 | 0.00 | 83 | 999.6 |
| 20260505053158 | 25 | 68 | 3.2 | 11.3 | 0.00 | 0.00 | 0.00 | 83 | 999.7 |
| 20260505052700 | 25 | 69 | 1.6 | 11.3 | 0.00 | 0.00 | 0.00 | 83 | 999.6 |
| 20260505051701 | 25 | 87 | 0.0 | 9.7 | 0.00 | 0.00 | 0.00 | 83 | 999.8 |
| 20260505051200 | 25 | 87 | 1.6 | 11.3 | 0.00 | 0.00 | 0.00 | 83 | 999.8 |
| 20260505050210 | 25 | 100 | 3.2 | 14.5 | 0.00 | 0.00 | 0.00 | 82 | 999.9 |
| 20260505041659 | 25 | 78 | 1.6 | 19.3 | 0.00 | 0.00 | 0.00 | 82 | 1000.1 |
| 20260505041156 | 25 | 87 | 4.8 | 17.7 | 0.00 | 0.00 | 0.00 | 82 | 1000.1 |
| 20260505040659 | 25 | 103 | 0.0 | 14.5 | 0.00 | 0.00 | 0.00 | 82 | 1000.3 |
| 20260505040155 | 25 | 66 | 0.0 | 19.3 | 0.00 | 0.00 | 0.00 | 82 | 1000.1 |
| 20260505035701 | 25 | 86 | 4.8 | 22.5 | 0.00 | 0.00 | 0.00 | 82 | 1000.2 |
| 20260505035156 | 26 | 94 | 8.0 | 22.5 | 0.00 | 0.00 | 0.00 | 81 | 1000.2 |
| 20260505034658 | 26 | 93 | 9.7 | 19.3 | 0.00 | 0.00 | 0.00 | 81 | 1000.2 |
| 20260505034156 | 26 | 87 | 6.4 | 19.3 | 0.00 | 0.00 | 0.00 | 81 | 1000.1 |
| 20260505033658 | 26 | 100 | 9.7 | 16.1 | 0.00 | 0.00 | 0.00 | 81 | 1000.2 |
| 20260505033154 | 26 | 103 | 3.2 | 16.1 | 0.00 | 0.00 | 0.00 | 81 | 1000.3 |
| 20260505032658 | 26 | 97 | 3.2 | 16.1 | 0.00 | 0.00 | 0.00 | 81 | 1000.3 |
| 20260505031658 | 26 | 94 | 6.4 | 19.3 | 0.00 | 0.00 | 0.00 | 81 | 1000.4 |
| 20260505031157 | 26 | 89 | 8.0 | 19.3 | 0.00 | 0.00 | 0.00 | 81 | 1000.5 |
| 20260505030700 | 26 | 96 | 8.0 | 19.3 | 0.00 | 0.00 | 0.00 | 80 | 1000.5 |
| 20260505030155 | 26 | 109 | 4.8 | 20.9 | 0.00 | 0.00 | 0.00 | 80 | 1000.5 |
| 20260505025658 | 26 | 104 | 8.0 | 20.9 | 0.00 | 0.00 | 0.00 | 80 | 1000.5 |
| 20260505025154 | 26 | 58 | 4.8 | 19.3 | 0.00 | 0.00 | 0.00 | 79 | 1000.5 |
| 20260505024154 | 26 | 102 | 8.0 | 19.3 | 0.00 | 0.00 | 0.00 | 79 | 1000.4 |
| 20260505023657 | 26 | 85 | 9.7 | 24.1 | 0.00 | 0.00 | 0.00 | 78 | 1000.4 |
| 20260505023153 | 27 | 117 | 14.5 | 24.1 | 0.00 | 0.00 | 0.00 | 78 | 1000.3 |
| 20260505022656 | 27 | 90 | 8.0 | 20.9 | 0.00 | 0.00 | 0.00 | 78 | 1000.3 |
| 20260505022153 | 27 | 93 | 8.0 | 19.3 | 0.00 | 0.00 | 0.00 | 77 | 1000.2 |
| 20260505021705 | 27 | 86 | 9.7 | 19.3 | 0.00 | 0.00 | 0.00 | 77 | 1000.2 |
| 20260505021153 | 27 | 79 | 9.7 | 17.7 | 0.00 | 0.00 | 0.00 | 77 | 1000.2 |
| 20260505020701 | 27 | 93 | 9.7 | 19.3 | 0.00 | 0.00 | 0.00 | 76 | 1000.2 |
| 20260505015704 | 27 | 93 | 8.0 | 20.9 | 0.00 | 0.00 | 0.00 | 75 | 1000.1 |
| 20260505015153 | 27 | 96 | 4.8 | 17.7 | 0.00 | 0.00 | 0.00 | 75 | 1000.2 |
| 20260505013701 | 27 | 93 | 4.8 | 16.1 | 0.00 | 0.00 | 0.00 | 74 | 1000.0 |
| 20260505013152 | 27 | 76 | 8.0 | 16.1 | 0.00 | 0.00 | 0.00 | 74 | 999.9 |
| 20260505012656 | 27 | 79 | 6.4 | 16.1 | 0.00 | 0.00 | 0.00 | 73 | 999.8 |
| 20260505012152 | 28 | 69 | 6.4 | 16.1 | 0.00 | 0.00 | 0.00 | 73 | 999.8 |
| 20260505011657 | 28 | 82 | 4.8 | 19.3 | 0.00 | 0.00 | 0.00 | 73 | 999.7 |
| 20260505011152 | 28 | 73 | 6.4 | 19.3 | 0.00 | 0.00 | 0.00 | 72 | 999.6 |
| 20260505010655 | 28 | 76 | 3.2 | 16.1 | 0.00 | 0.00 | 0.00 | 72 | 999.5 |
| 20260505010152 | 28 | 93 | 6.4 | 16.1 | 0.00 | 0.00 | 0.00 | 71 | 999.4 |
| 20260505005700 | 28 | 71 | 0.0 | 8.0 | 0.00 | 0.00 | 0.00 | 71 | 999.5 |
| 20260505005152 | 28 | 69 | 3.2 | 8.0 | 0.00 | 0.00 | 0.00 | 71 | 999.3 |
| 20260505004700 | 28 | 69 | 3.2 | 8.0 | 0.00 | 0.00 | 0.00 | 71 | 999.2 |
| 20260505004151 | 28 | 69 | 1.6 | 11.3 | 0.00 | 0.00 | 0.00 | 70 | 999.2 |
| 20260505003658 | 28 | 68 | 4.8 | 14.5 | 0.00 | 0.00 | 0.00 | 70 | 999.1 |
| 20260505003152 | 28 | 89 | 6.4 | 14.5 | 0.00 | 0.00 | 0.00 | 70 | 999.1 |
| 20260505002700 | 28 | 86 | 4.8 | 16.1 | 0.00 | 0.00 | 0.00 | 70 | 999.1 |
| 20260505002151 | 28 | 83 | 9.7 | 16.1 | 0.00 | 0.00 | 0.00 | 69 | 999.1 |
| 20260505001658 | 28 | 82 | 3.2 | 17.7 | 0.00 | 0.00 | 0.00 | 69 | 998.9 |
| 20260505001151 | 29 | 79 | 6.4 | 17.7 | 0.00 | 0.00 | 0.00 | 68 | 998.9 |
| 20260505000700 | 29 | 58 | 4.8 | 14.5 | 0.00 | 0.00 | 0.00 | 68 | 998.8 |
| 20260505000150 | 29 | 85 | 6.4 | 14.5 | 0.00 | 0.00 | 0.00 | 68 | 998.7 |
| 20260504235657 | 29 | 82 | 3.2 | 11.3 | 0.00 | 0.00 | 0.00 | 67 | 998.7 |
| 20260504235150 | 29 | 83 | 0.0 | 8.0 | 0.00 | 0.00 | 0.00 | 67 | 998.6 |
| 20260504234655 | 29 | 82 | 3.2 | 8.0 | 0.00 | 0.00 | 0.00 | 67 | 998.5 |
| 20260504234149 | 29 | 83 | 0.0 | 14.5 | 0.00 | 0.00 | 0.00 | 66 | 998.5 |
| 20260504233652 | 30 | 80 | 4.8 | 14.5 | 0.00 | 0.00 | 0.00 | 66 | 998.4 |
| 20260504233151 | 30 | 92 | 3.2 | 14.5 | 0.00 | 0.00 | 0.00 | 66 | 998.4 |
| 20260504231652 | 30 | 72 | 6.4 | 11.3 | 0.00 | 0.00 | 0.00 | 65 | 998.2 |
| 20260504231149 | 30 | 72 | 0.0 | 9.7 | 0.00 | 0.00 | 0.00 | 64 | 998.2 |
| 20260504230654 | 30 | 76 | 3.2 | 14.5 | 0.00 | 0.00 | 0.00 | 64 | 998.2 |
| 20260504230150 | 30 | 80 | 6.4 | 14.5 | 0.00 | 0.00 | 0.00 | 64 | 998.1 |
| 20260504225651 | 30 | 92 | 3.2 | 14.5 | 0.00 | 0.00 | 0.00 | 63 | 998.1 |
| 20260504225149 | 30 | 78 | 4.8 | 14.5 | 0.00 | 0.00 | 0.00 | 63 | 998.1 |
| 20260504224651 | 30 | 85 | 6.4 | 19.3 | 0.00 | 0.00 | 0.00 | 62 | 998.0 |
| 20260504224149 | 30 | 96 | 4.8 | 19.3 | 0.00 | 0.00 | 0.00 | 62 | 998.0 |
| 20260504223653 | 30 | 103 | 9.7 | 17.7 | 0.00 | 0.00 | 0.00 | 61 | 997.9 |
| 20260504223202 | 31 | 90 | 6.4 | 17.7 | 0.00 | 0.00 | 0.00 | 60 | 997.9 |
| 20260504222652 | 31 | 78 | 4.8 | 16.1 | 0.00 | 0.00 | 0.00 | 60 | 997.7 |
| 20260504222148 | 31 | 90 | 6.4 | 14.5 | 0.00 | 0.00 | 0.00 | 59 | 997.7 |
| 20260504221651 | 31 | 75 | 4.8 | 16.1 | 0.00 | 0.00 | 0.00 | 59 | 997.6 |
| 20260504221148 | 31 | 99 | 4.8 | 24.1 | 0.00 | 0.00 | 0.00 | 59 | 997.6 |
| 20260504220649 | 31 | 71 | 8.0 | 24.1 | 0.00 | 0.00 | 0.00 | 58 | 997.5 |
| 20260504215652 | 31 | 65 | 4.8 | 17.7 | 0.00 | 0.00 | 0.00 | 58 | 997.4 |
| 20260504215148 | 32 | 83 | 9.7 | 17.7 | 0.00 | 0.00 | 0.00 | 57 | 997.3 |
| 20260504214650 | 32 | 75 | 4.8 | 17.7 | 0.00 | 0.00 | 0.00 | 57 | 997.2 |
| 20260504214147 | 32 | 62 | 3.2 | 22.5 | 0.00 | 0.00 | 0.00 | 57 | 997.1 |
| 20260504213648 | 32 | 56 | 9.7 | 22.5 | 0.00 | 0.00 | 0.00 | 56 | 997.1 |
| 20260504213146 | 32 | 45 | 11.3 | 22.5 | 0.00 | 0.00 | 0.00 | 56 | 996.9 |
| 20260504212650 | 32 | 41 | 11.3 | 19.3 | 0.00 | 0.00 | 0.00 | 56 | 996.9 |
| 20260504212146 | 32 | 54 | 4.8 | 20.9 | 0.00 | 0.00 | 0.00 | 56 | 996.8 |
| 20260504211650 | 32 | 48 | 11.3 | 20.9 | 0.00 | 0.00 | 0.00 | 54 | 996.8 |
| 20260504211147 | 33 | 96 | 6.4 | 17.7 | 0.00 | 0.00 | 0.00 | 51 | 996.9 |
| 20260504210651 | 32 | 79 | 8.0 | 17.7 | 0.00 | 0.00 | 0.00 | 49 | 996.9 |
| 20260504210147 | 33 | 99 | 4.8 | 17.7 | 0.00 | 0.00 | 0.00 | 50 | 996.8 |
| 20260504205648 | 33 | 103 | 6.4 | 17.7 | 0.00 | 0.00 | 0.00 | 49 | 996.8 |
| 20260504205147 | 33 | 102 | 6.4 | 20.9 | 0.00 | 0.00 | 0.00 | 49 | 996.8 |
| 20260504204648 | 33 | 66 | 3.2 | 20.9 | 0.00 | 0.00 | 0.00 | 48 | 996.7 |
| 20260504204146 | 33 | 85 | 8.0 | 20.9 | 0.00 | 0.00 | 0.00 | 47 | 996.7 |
| 20260504203649 | 33 | 116 | 8.0 | 20.9 | 0.00 | 0.00 | 0.00 | 47 | 996.6 |
| 20260504203146 | 33 | 68 | 8.0 | 20.9 | 0.00 | 0.00 | 0.00 | 49 | 996.7 |
| 20260504202649 | 33 | 83 | 8.0 | 20.9 | 0.00 | 0.00 | 0.00 | 49 | 996.6 |
| 20260504202145 | 33 | 54 | 9.7 | 20.9 | 0.00 | 0.00 | 0.00 | 49 | 996.7 |
| 20260504201650 | 33 | 68 | 4.8 | 20.9 | 0.00 | 0.00 | 0.00 | 49 | 996.8 |
| 20260504201147 | 33 | 66 | 12.9 | 27.4 | 0.00 | 0.00 | 0.00 | 50 | 996.7 |
| 20260504200649 | 33 | 56 | 8.0 | 27.4 | 0.00 | 0.00 | 0.00 | 53 | 996.8 |
| 20260504200158 | 33 | 41 | 11.3 | 24.1 | 0.00 | 0.00 | 0.00 | 53 | 996.9 |
| 20260504195649 | 33 | 38 | 12.9 | 20.9 | 0.00 | 0.00 | 0.00 | 55 | 996.9 |
| 20260504195145 | 33 | 51 | 8.0 | 25.7 | 0.00 | 0.00 | 0.00 | 56 | 996.9 |
| 20260504194648 | 33 | 39 | 14.5 | 25.7 | 0.00 | 0.00 | 0.00 | 56 | 996.9 |
| 20260504194146 | 33 | 3 | 9.7 | 25.7 | 0.00 | 0.00 | 0.00 | 57 | 997.0 |
| 20260504193649 | 33 | 51 | 14.5 | 25.7 | 0.00 | 0.00 | 0.00 | 57 | 997.1 |
| 20260504193145 | 33 | 69 | 9.7 | 25.7 | 0.00 | 0.00 | 0.00 | 55 | 997.1 |
| 20260504192648 | 33 | 52 | 6.4 | 25.7 | 0.00 | 0.00 | 0.00 | 58 | 997.1 |
| 20260504192144 | 33 | 47 | 6.4 | 24.1 | 0.00 | 0.00 | 0.00 | 58 | 997.3 |
| 20260504191648 | 33 | 58 | 12.9 | 29.0 | 0.00 | 0.00 | 0.00 | 59 | 997.2 |
| 20260504191144 | 32 | 44 | 11.3 | 29.0 | 0.00 | 0.00 | 0.00 | 59 | 997.3 |
| 20260504190647 | 33 | 18 | 12.9 | 27.4 | 0.00 | 0.00 | 0.00 | 59 | 997.4 |
| 20260504190144 | 33 | 51 | 8.0 | 32.2 | 0.00 | 0.00 | 0.00 | 59 | 997.6 |
| 20260504185648 | 33 | 54 | 16.1 | 32.2 | 0.00 | 0.00 | 0.00 | 58 | 997.6 |
| 20260504185144 | 33 | 56 | 11.3 | 29.0 | 0.00 | 0.00 | 0.00 | 58 | 997.6 |
| 20260504184647 | 33 | 78 | 17.7 | 29.0 | 0.00 | 0.00 | 0.00 | 58 | 997.8 |
| 20260504184143 | 33 | 0 | 8.0 | 25.7 | 0.00 | 0.00 | 0.00 | 59 | 997.8 |
| 20260504183647 | 33 | 32 | 12.9 | 22.5 | 0.00 | 0.00 | 0.00 | 58 | 998.0 |
| 20260504183144 | 32 | 37 | 4.8 | 16.1 | 0.00 | 0.00 | 0.00 | 59 | 997.9 |
| 20260504182646 | 32 | 47 | 6.4 | 22.5 | 0.00 | 0.00 | 0.00 | 59 | 998.1 |
| 20260504182143 | 32 | 90 | 8.0 | 22.5 | 0.00 | 0.00 | 0.00 | 59 | 998.2 |
| 20260504181143 | 33 | 23 | 9.7 | 25.7 | 0.00 | 0.00 | 0.00 | 57 | 998.2 |
| 20260504180646 | 32 | 48 | 8.0 | 25.7 | 0.00 | 0.00 | 0.00 | 58 | 998.1 |
| 20260504180142 | 32 | 51 | 14.5 | 25.7 | 0.00 | 0.00 | 0.00 | 57 | 998.2 |
| 20260504175646 | 33 | 23 | 9.7 | 22.5 | 0.00 | 0.00 | 0.00 | 58 | 998.4 |
| 20260504175144 | 32 | 55 | 11.3 | 22.5 | 0.00 | 0.00 | 0.00 | 60 | 998.4 |
| 20260504174646 | 32 | 18 | 9.7 | 20.9 | 0.00 | 0.00 | 0.00 | 61 | 998.5 |
| 20260504174143 | 32 | 30 | 9.7 | 19.3 | 0.00 | 0.00 | 0.00 | 61 | 998.9 |
| 20260504173645 | 32 | 48 | 4.8 | 19.3 | 0.00 | 0.00 | 0.00 | 62 | 998.9 |
| 20260504173142 | 32 | 3 | 9.7 | 19.3 | 0.00 | 0.00 | 0.00 | 61 | 999.0 |
| 20260504172142 | 32 | 69 | 6.4 | 27.4 | 0.00 | 0.00 | 0.00 | 61 | 999.1 |
| 20260504171645 | 32 | 42 | 16.1 | 27.4 | 0.00 | 0.00 | 0.00 | 62 | 999.2 |
| 20260504171142 | 32 | 1 | 11.3 | 20.9 | 0.00 | 0.00 | 0.00 | 62 | 999.2 |
| 20260504170645 | 32 | 11 | 4.8 | 17.7 | 0.00 | 0.00 | 0.00 | 63 | 999.4 |
| 20260504170141 | 31 | 25 | 9.7 | 17.7 | 0.00 | 0.00 | 0.00 | 64 | 999.6 |
| 20260504160143 | 30 | 28 | 6.4 | 14.5 | 0.00 | 0.00 | 0.00 | 73 | 1000.9 |
| 20260504150645 | 28 | 37 | 1.6 | 11.3 | 0.00 | 0.00 | 0.00 | 75 | 1001.6 |
| 20260504150141 | 28 | 34 | 6.4 | 17.7 | 0.00 | 0.00 | 0.00 | 75 | 1001.6 |
| 20260504141144 | 27 | 89 | 8.0 | 17.7 | 0.00 | 0.00 | 0.00 | 76 | 1001.9 |
| 20260504140641 | 27 | 87 | 8.0 | 17.7 | 0.00 | 0.00 | 0.00 | 76 | 1002.0 |
| 20260504140137 | 27 | 102 | 3.2 | 22.5 | 0.00 | 0.00 | 0.00 | 78 | 1001.9 |
| 20260504130639 | 27 | 131 | 11.3 | 22.5 | 0.00 | 0.00 | 0.00 | 77 | 1001.6 |
| 20260504130137 | 27 | 80 | 8.0 | 22.5 | 0.00 | 0.00 | 0.00 | 77 | 1001.6 |
| 20260504120135 | 27 | 86 | 6.4 | 20.9 | 0.00 | 0.00 | 0.00 | 79 | 1001.2 |
| 20260504110637 | 25 | 71 | 1.6 | 9.7 | 0.00 | 0.00 | 0.00 | 81 | 1000.7 |